Погода в Середкиной

Россия / Иркутская область     53°26′19″N   103°24′16″E
темп.,
°C
ветер,
м/с
пор.,
м/с
влажн.,
%
обл.,
%
осадки,
мм/ч
давл.,
гПа
погр.,
м
22 января, сб
сб2223:00−22всв1110069 0.0 10369
02:00−24св1110093 0.0 10379
05:00−26всв1110090 0.0 103710
08:00−25всв11100100 0.1 103715
11:00−18ссв119594 0.0 103668
14:00−15с2193100 0.1 1035134
17:00−15ссз1296100 0.1 103468
20:00−14ссз1297100 0.4 103466
23 января, вс
вс2323:00−14сз1296100 0.4 103473
02:00−13сз1197100 0.9 103456
05:00−13зсз1197100 0.6 103334
08:00−13з1197100 0.9 103422
11:00−12зсз1294100 0.3 1034166
14:00−11зсз2291100 0.6 1034349
17:00−12сз1196100 0.2 103419
20:00−14зюз1197100 0.4 103510
24 января, пн
пн2423:00−15зюз1198100 0.2 103511
02:00−15з1197100 0.3 103521
05:00−16зюз1198100 0.1 103516
08:00−16зсз1198100 0.3 103519
11:00−14сз1394100 0.2 1035171
14:00−13сз3490100 0.3 1035360
17:00−14сз1196100 0.0 103511
20:00−16зсз1198100 0.0 10369
25 января, вт
вт2523:00−18зсз1110092 0.0 10379
02:00−21ссв00100100 0.1 10389
05:00−21вюв00100100 0.1 103810
08:00−20вюв11100100 0.1 103914
11:00−18с119683 0.0 103970
14:00−15сз129371 0.1 1038150
17:00−20з0010045 0.0 10399
20:00−24ююв1110097 0.0 10409
26 января, ср
ср2623:00−26юв11100100 0.0 10429
02:00−27юв11100100 0.1 104210
05:00−29юв11100100 0.0 104311
08:00−30юв11100100 0.1 104411
11:00−25вюв00100100 0.0 104449
14:00−20ссз119668 0.1 1042112
17:00−24сз11995 0.0 10429
20:00−28ююв1110054 0.0 10449